This is the latest recevied weather packets stored in our database for station/object K4HOG. If no packets are shown the sender has not sent any weather packets the latest 1 day(s).
| Time | Temp. | Humidity | Pressure | Rain* | Wind** | Luminosity | Snow |
|---|---|---|---|---|---|---|---|
| 1777993020 | 26.11° C | 63% | 1016.6 hPa | 0 mm | 1.34 m/s, 217° | 252 W/m² | - |
| 1777992719 | 26.11° C | 64% | 1016.3 hPa | 0 mm | 1.34 m/s, 171° | 182 W/m² | - |
| 1777992416 | 25.56° C | 65% | 1016.5 hPa | 0 mm | 0.45 m/s, 247° | 280 W/m² | - |
| 1777992114 | 25.56° C | 67% | 1016.5 hPa | 0 mm | 1.79 m/s, 168° | 299 W/m² | - |
| 1777991811 | 25.56° C | 66% | 1016.6 hPa | 0 mm | 2.24 m/s, 54° | 161 W/m² | - |
| 1777991508 | 25.56° C | 66% | 1016.3 hPa | 0 mm | 0.89 m/s, 188° | 239 W/m² | - |
| 1777991205 | 25° C | 69% | 1016.2 hPa | 0 mm | 1.34 m/s, 20° | 255 W/m² | - |
| 1777990903 | 25° C | 71% | 1016.3 hPa | 0 mm | 0.45 m/s, 49° | 177 W/m² | - |
| 1777990600 | 24.44° C | 70% | 1016.2 hPa | 0 mm | 1.34 m/s, 241° | 115 W/m² | - |
| 1777990297 | 24.44° C | 71% | 1016.3 hPa | 0 mm | 1.79 m/s, 70° | 118 W/m² | - |
| 1777989993 | 24.44° C | 71% | 1016.4 hPa | 0 mm | 1.34 m/s, 189° | 136 W/m² | - |
| 1777989690 | 24.44° C | 73% | 1016.2 hPa | 0 mm | 0.89 m/s, 38° | 103 W/m² | - |
| 1777989386 | 24.44° C | 72% | 1016.1 hPa | 0 mm | 0.45 m/s, 136° | 96 W/m² | - |
| 1777989083 | 23.89° C | 74% | 1016 hPa | 0 mm | 0.89 m/s, 51° | 194 W/m² | - |
| 1777988779 | 23.89° C | 74% | 1016.1 hPa | 0 mm | 1.34 m/s, 272° | 299 W/m² | - |
| 1777988477 | 23.33° C | 75% | 1016 hPa | 0 mm | 0.89 m/s, 279° | 121 W/m² | - |
| 1777988173 | 23.33° C | 75% | 1016.1 hPa | 0 mm | 2.24 m/s, 65° | 91 W/m² | - |
| 1777987869 | 22.78° C | 76% | 1016.1 hPa | 0 mm | 0.89 m/s, 274° | 93 W/m² | - |
| 1777987566 | 22.78° C | 76% | 1015.9 hPa | 0 mm | 0.45 m/s, 98° | 107 W/m² | - |
| 1777987264 | 22.78° C | 77% | 1016.2 hPa | 0 mm | 1.79 m/s, 50° | 79 W/m² | - |
| 1777986960 | 22.78° C | 76% | 1016.3 hPa | 0 mm | 0.45 m/s, 190° | 67 W/m² | - |
| 1777986658 | 22.22° C | 78% | 1016.3 hPa | 0 mm | 0.45 m/s, 11° | 79 W/m² | - |
| 1777986356 | 21.67° C | 78% | 1016.3 hPa | 0 mm | 0.89 m/s, 209° | 66 W/m² | - |
| 1777986054 | 21.67° C | 80% | 1016.2 hPa | 0 mm | 0.89 m/s, 208° | 98 W/m² | - |
| 1777985750 | 21.67° C | 79% | 1016 hPa | 0 mm | 1.34 m/s, 358° | 73 W/m² | - |
* Rain latest hour (hover to see other rain measurements)
** Current wind speed in m/s (hover to see current wind gust speed)